Regional Weather Roundup
Issued by NWS Grand Forks, ND

Home | Current Version | Previous Version | Text Only | Print | Product List | Glossary Off
Versions: 1 2 3 4 5 6 7 8 9 10 11 12 13 14 15 16 17 18 19 20 21 22 23 24 25 26 27 28 29 30 31 32 33 34 35 36 37 38 39 40 41 42 43 44 45 46 47 48 49 50

000
ASUS43 KFGF 041110
RWRFGF
PRAIRIE TO PINES  WEATHER ROUNDUP
NATIONAL WEATHER SERVICE EASTERN NORTH DAKOTA/GRAND FORKS ND
600 AM CDT SAT JUL 04 2015

 **SATELLITE DATA USED TO AUGMENT SKY COVER AT AUTOMATED STATIONS**
 *****  WEATHER ACROSS EASTERN NORTH DAKOTA  *****

CITY           SKY/WX    TMP DP  RH WIND       PRES   REMARKS
GRAND FORKS    CLOUDY    61  58  90 S3        29.87S FOG
GRAND FRKS AFB CLEAR     60  58  92 S6        29.87F FOG
GRAND FRKS NWS   N/A     61 N/A N/A S6          N/A
DEVILS LAKE    CLEAR     66  61  82 S8        29.84F
FARGO          CLEAR     65  60  84 SE7       29.89S HAZE
WAHPETON ARPT    N/A     59  57  94 SE5       29.92R
$$

 ***** WEATHER ACROSS CENTRAL AND WESTERN NORTH DAKOTA  *****

CITY           SKY/WX    TMP DP  RH WIND       PRES   REMARKS
BISMARCK       PTCLDY    63  62  97 SE6       29.86S FOG
MINOT          CLEAR     65  61  87 CALM      29.78F FOG
JAMESTOWN      CLOUDY    66  63  90 S8        29.88F FOG
MINOT AFB      CLEAR     64  64 100 S8        29.78F FOG
GARRISON         N/A     65  63  93 SE5       29.83S
WILLISTON      CLEAR     62  58  86 CALM      29.78F FOG
DICKINSON      CLEAR     63  59  87 S10       29.83S FOG
HETTINGER      PTCLDY    63  58  83 E6        29.86F HAZE
$$

 *****  OTHER AIRPORT OBSERVATIONS IN OUR AREA  *****

CITY           SKY/WX    TMP DP  RH WIND       PRES   REMARKS
WALHALLA       FAIR      64  64 100 MISG      29.84F FOG
GRAFTON AIRPOR FAIR      59  59 100 S7        29.86F FOG
VALLEY CITY AR FAIR      61  61 100 S7        29.89F FOG
CANDO          FAIR      63  63 100 S6        29.85S FOG
CAVALIER APRT  FAIR      59  59 100 S3        29.85F FOG
GWINNER          N/A     64  64 100 S6        29.91S
ROLLA          FAIR      59  59 100 S7        29.85F FOG
 ***** THE ABOVE OBSERVATIONS ARE NON NWS ARE NOT QUALITY
       CONTROLLED AND MAY MIS-REPORT RAIN FOR SNOW...
$$

  *****  WEATHER ACROSS NORTHERN MINNESOTA  *****

CITY           SKY/WX    TMP DP  RH WIND       PRES   REMARKS
FLAG ISLAND    PTCLDY    70  61  73 S9        29.89S
WARROAD        CLEAR     61  57  88 S5        29.91S
ROSEAU         CLEAR     57  54  88 S5        29.90R
HALLOCK        CLEAR     57  57 100 SE8       29.86F FOG
THF RVR FALLS  CLEAR     59  57  94 SE6       29.91S
BAUDETTE       CLEAR     56  52  86 S6        29.92S
WASKISH        CLEAR     54  54 100 E3        29.94R FOG
CROOKSTON      CLEAR     59  57  94 S8        29.89F FOG
$$
  *****  WEATHER ACROSS CENTRAL AND WEST MINNESOTA  *****

CITY           SKY/WX    TMP DP  RH WIND       PRES   REMARKS
FOSSTON        CLEAR     54  48  82 CALM      29.93S FOG
BEMIDJI        FOG       52  52  99 CALM      29.94S VSB<1/4
PARK RAPIDS    FOG       56  54  93 CALM      29.94S VSB 1/4
ELBOW LAKE     FAIR      64  62  93 SE6       29.92S FOG
WADENA         FOG       55  54  94 CALM      29.94S VSB 1/4
DETROIT LAKES  CLEAR     61  59  94 CALM      29.94S FOG
MOORHEAD       CLEAR     63  61  94 SE7       29.91S FOG
FERGUS FALLS   CLEAR     66  63  88 SE5       29.92S FOG
MORRIS MN      FOG       59  57  94 SE5       29.92S VSB<1/4
STAPLES        MOCLDY    55  55 100 CALM      29.94S FOG
$$
  *****  WEATHER ELSEWHERE ACROSS MINNESOTA  *****

CITY           SKY/WX    TMP DP  RH WIND       PRES   REMARKS
DULUTH         CLEAR     58  53  84 E3        29.96R
INTRNTL FALLS  CLEAR     51  50  96 SE3       29.95R FOG
ELY            FOG       45  45 100 CALM      29.98R VSB 1/2
CLOQUET        CLEAR     52  48  87 CALM      29.96R
WHEATON        CLEAR     61  61 100 CALM      29.93S FOG
BRAINERD       FOG       53  52  96 CALM      29.95S VSB 1/4
HIBBING        CLEAR     46  46 100 CALM      29.96S FOG
ALEXANDRIA     PTCLDY    61  59  93 E3        29.96R FOG
SAINT CLOUD    FOG       58  58 100 CALM      29.94R VSB 3/4
MINNEAPOLIS    MOCLDY    66  60  81 SW3       29.94S
$$

  *****  WEATHER ACROSS SOUTH DAKOTA  *****

CITY           SKY/WX    TMP DP  RH WIND       PRES   REMARKS
SIOUX FALLS    CLEAR     62  59  90 CALM      29.96F
BROOKINGS      CLEAR     63  61  94 S5        29.97S
WATERTOWN      CLEAR     64  61  90 SE6       29.94F FOG
HURON          CLEAR     63  62  97 SE8       29.91S FOG
SISSETON         N/A     60  59  96 SE3       29.90S
ABERDEEN       CLEAR     62  61  96 S3        29.91R FOG
MITCHELL       CLEAR     63  62  97 S8        29.93F FOG
PIERRE         PTCLDY    63  62  97 SE7       29.87F
MOBRIDGE       PTCLDY    68  67  96 S10       29.86S FOG
RAPID CITY     CLEAR     61  58  90 SE7       29.88F
$$

  *****  SOME WEATHER IN NEARBY STATES *****

CITY           SKY/WX    TMP DP  RH WIND       PRES   REMARKS
GLASGOW MT     CLEAR     63  55  75 E9        29.73S
GREAT FALLS MT CLEAR     62  43  49 SW8       29.84R
CHEYENNE WY    PTCLDY    59  54  83 SW6       30.06F
SCOTTSBLUFF NE PTCLDY    66  60  81 E10       29.95F
OMAHA NE       CLEAR     59  57  93 CALM      29.99S FOG
DES MOINES IA  PTCLDY    61  55  81 CALM      29.99R
DAVENPORT IA   CLEAR     55  53  93 CALM      29.98S FOG
CHICAGO IL     PTCLDY    60  55  83 W6        29.97R
EAU CLAIRE WI  CLEAR     60  56  86 CALM      29.94R
LA CROSSE WI   FAIR      62  61  96 S8        29.96R
$$

  *****  SOME NATIONAL WEATHER *****

CITY           SKY/WX    TMP DP  RH WIND       PRES   REMARKS
LA GUARDIA NY  CLOUDY    69  59  70 E7        29.95R
RALEIGH NC     PTCLDY    71  69  93 SW9       29.95R
ATLANTA GA     LGT RAIN  68  66  93 SW5       30.06R
NEW ORLEANS LA MOCLDY    79  73  82 SW7       30.04R
OKLAHOMA CITY  PTCLDY    70  69  97 SW3       29.95R
ALBUQUERQUE NM MOCLDY    71  55  56 VRB5      30.15R
SALT LAKE CITY MOCLDY    81  50  33 S9        29.90S
LOS ANGELES CA CLOUDY    62  60  93 CALM      29.88S
BOISE ID       MOCLDY    75  45  34 S6        29.83R
SEATTLE WA     CLEAR     61  54  77 S3        29.89F
$$

*** WEATHER ACROSS MANITOBA...SASKATCHEWAN AND ONTARIO ***
                ***ONTARIO***

CITY           SKY/WX    TMP DP  RH WIND       PRES   REMARKS
GERALDTON      MOCLDY    48  46  93 CALM      29.96R
THUNDER BAY    PTCLDY    50  50 100 SW3       29.97R
SIOUX LOOKOUT  CLOUDY    57  57 100 SE6       29.94S
TORONTO        MOSUNNY   57  46  67 N6        29.93R
BIG TROUT LK   CLEAR     55  48  76 S10       29.89F
PICKLE LAKE    CLOUDY    52  50  93 S6        29.93
DRYDEN         CLEAR     59  55  88 S9        29.94R
KENORA         PTCLDY    63  57  82 S7        29.92R
$$
                *** MANITOBA***

CITY           SKY/WX    TMP DP  RH WIND       PRES   REMARKS
BRANDON        MOCLDY    57  57 100 NE5       29.80F SMOKE
DAUPHIN        CLEAR     72  63  73 SW14G22   29.72F HAZE
ISLAND LAKE    LGT RAIN  64  54  68 W6        29.76R
PILOT MOUND      N/A     57  55  94 S7          N/A
THE PAS          N/A     64  61  88 S3        29.66R SMOKE
THOMPSON       CLOUDY    59  59 100 VRB2      29.59F FOG
WINNIPEG       PTCLDY    61  59  94 S8        29.84S SMOKE
LYNN LAKE      CLOUDY    61  59  94 W14G20    29.57R FOG
CHURCHILL      LGT RAIN  45  43  93 E25G37    29.73F FOG
$$
                ***SASKATCHEWAN***

CITY           SKY/WX    TMP DP  RH WIND       PRES   REMARKS
ESTEVAN        PTCLDY    64  63  94 SE6       29.76F SMOKE
KINDERSLEY     LGT RAIN  63  55  77 N13       29.80F
LLOYDMINSTER   MOCLDY    59  46  63 W8        29.83S
PRINCE ALBERT  MOCLDY    59  55  88 VRB3      29.73S
REGINA         CLOUDY    64  63  94 E7        29.75F FOG
YORKTON        FOG       64  63  94 SW9       29.74S VSB 1
N. BATTLEFORD  CLOUDY    68  50  52 NW10G21   29.81F
LA RONGE       SMOKE     59  45  58 W2        29.73R VSB 3/4
SASKATOON      MOCLDY    63  57  82 NW9       29.76S
SWIFT CURRENT  MOCLDY    61  55  82 E9        29.74R
$$
NOTE: THESE ARE AUTOMATED STATIONS WITH LIMITED QUALITY CONTROL
      "FAIR" INDICATES FEW OR NO CLOUDS BELOW 12,000 FEET WITH NO
      SIGNIFICANT WEATHER AND/OR OBSTRUCTIONS TO VISIBILITY.
      SKY/WX - SKY CONDITION AND SIGNIFICANT WEATHER.
      TMP - AIR TEMPERATURE.    DP   - DEWPOINT TEMPERATURE.
      RH  - RELATIVE HUMIDITY.  PRES - PRESSURE.
      HX  - HEAT INDEX.         WCI  - WIND CHILL INDEX.
$


USA.gov is the U.S. government's official web portal to all federal, state and local government web resources and services.